[[{"header":{"parameterUnit":"m.s-1","parameterCategory":1,"la1":30.2991,"la2":30.254,"lo1":-89.0895,"lo2":-89.0444,"dy":0.0017,"dx":0.0017,"nx":28,"ny":28,"refTime":"2023-08-05T03:00:00:Z","depth":0,"parameterNumber":2,"parameterNumberName":"U-component_of_WINDS"},"data":[0,0,0,0,0,0,0,0,0,0,0,0,0,0,0,0,0,0,0,0,0,0,0,0,0,0,0,0,0,0,0,0,0,0,0,0,0,0,0,0,0,0,0,0,0,0,0,0,0,0,0,0,0,0,0,0,0,0,5.6746,5.6747,0,5.6841,5.6842,5.6843,5.6742,5.6738,5.6734,5.673,5.6828,5.6834,5.6841,0,0,0,0,0,0,0,0,0,0,0,0,0,5.6475,5.648,5.6746,5.6747,5.6748,5.684,5.6842,5.6843,5.6743,5.6738,5.6733,5.6729,5.6826,5.6834,5.6841,0,0,0,0,0,0,0,0,0,0,0,0,0,5.6584,5.6482,5.6745,5.6709,5.6707,5.684,5.6842,5.6843,5.6743,5.6738,5.6732,5.6726,5.6824,5.6833,5.6842,5.7017,0,0,5.6871,5.6875,0,0,0,0,0,0,0,0,5.6577,5.6594,5.6713,5.6712,5.6709,5.6773,5.6782,5.6901,5.6745,5.673,5.673,5.6724,5.6815,5.6825,5.6855,5.7021,5.7025,5.6872,5.6877,5.6881,5.6884,0,0,0,0,0,0,0,5.657,5.6589,5.6783,5.6715,5.6713,5.6687,5.6696,5.6804,5.6804,5.673,5.6723,5.6736,5.6813,5.6846,5.6857,5.7027,5.6871,5.688,5.6885,5.6889,5.7336,5.7341,0,0,0,0,0,0,5.6567,5.6583,5.678,5.6786,5.6628,5.6697,5.6707,5.6759,5.6802,5.6803,5.6741,5.6731,5.6833,5.6846,5.686,5.7063,5.6881,5.689,5.6895,5.7329,5.7337,5.7344,0,0,0,0,0,0,5.6561,5.6585,5.6776,5.6683,5.6705,5.6708,5.6767,5.6764,5.6797,5.681,5.6809,5.6775,5.6829,5.6847,5.6977,5.7065,5.6894,5.6903,5.7322,5.7332,5.734,5.7474,0,0,0,0,0,0,5.6554,5.6584,5.6651,5.6685,5.671,5.6893,5.6772,5.677,5.6814,5.6801,5.6842,5.6844,5.6826,5.6964,5.6986,5.7075,5.691,5.7314,5.7326,5.7337,5.7461,5.7486,5.7508,0,0,0,0,0,5.6545,5.6686,5.6655,5.6679,5.6794,5.6898,5.6913,5.689,5.6821,5.6888,5.6895,5.6842,5.7052,5.6978,5.7003,5.7095,5.7308,5.7323,5.7336,5.7451,5.7481,5.7507,0,0,0,0,0,0,5.6663,5.669,5.6656,5.6812,5.6854,5.6881,5.6965,5.6923,5.6985,5.6971,5.694,5.695,5.7088,5.7105,5.7022,5.7264,5.7169,5.7189,5.7248,5.7277,5.73,5.7291,5.6918,0,0,0,0,0,5.6708,5.679,5.6809,5.6945,5.6967,5.6963,5.7007,5.6985,5.7027,5.7044,5.7062,5.7104,5.7179,5.7229,5.7299,5.7464,5.7469,5.754,5.7563,5.7582,5.7598,5.7682,5.7713,5.739,5.739,5.7389,0,0,5.68,5.6825,5.6879,5.6969,5.6999,5.7084,5.6978,5.7074,5.7136,5.7059,5.7182,5.7196,5.7241,5.7388,5.7454,5.7407,5.7689,5.76,5.7615,5.7621,5.77,5.7731,5.7758,5.7399,5.7398,5.7396,0,0,5.7011,5.704,5.7154,5.7185,5.723,5.7226,5.7253,5.7287,5.7293,5.7416,5.7359,5.7432,5.7563,5.7596,5.763,5.785,5.7803,5.7874,5.7995,5.8078,5.8103,5.8125,5.82,5.8228,5.7892,5.7892,5.7892,0,5.712,5.7246,5.7218,5.7316,5.7356,5.729,5.7404,5.7436,5.7502,5.7531,5.7477,5.7637,5.7663,5.7815,5.7868,5.79,5.7928,5.7869,5.8102,5.8124,5.8144,5.8215,5.8244,5.79,5.7899,5.7898,5.7897,0,5.7376,5.7464,5.7551,5.7615,5.7665,5.7771,5.7758,5.7812,5.7785,5.7786,5.791,5.7939,5.8011,5.8046,5.8022,5.8194,5.8163,5.8106,5.801,5.8183,5.8249,5.8277,5.7912,5.7909,5.7906,5.7904,0,0,5.7665,5.771,5.7742,5.7768,5.7812,5.7879,5.7981,5.8051,5.8097,5.8145,5.8227,5.8338,5.8285,5.8323,5.8302,5.8375,5.8543,5.8309,5.8309,5.8348,5.8729,5.8769,5.8802,5.8512,5.8517,5.8521,5.8724,0,5.7874,5.805,5.8026,5.8195,5.8274,5.821,5.8298,5.8334,5.8337,5.8404,5.8407,5.8485,5.841,5.8433,5.8502,5.8508,5.8618,5.8493,5.8587,5.859,5.8574,5.8837,5.888,5.907,5.875,5.8755,5.8758,0,5.8141,5.8196,5.8372,5.84,5.8433,5.8513,5.8573,5.8638,5.8677,5.8673,5.8715,5.868,5.878,5.8683,5.8819,5.8734,5.8771,5.8779,5.8786,5.8792,5.8683,5.8846,5.9131,5.9158,5.8799,5.8796,5.8793,0,5.8329,5.8448,5.8567,5.8593,5.863,5.8686,5.8704,5.8737,5.8779,5.8832,5.8859,5.8924,5.8958,5.9009,5.8991,5.8923,5.9129,5.9031,5.9127,5.9127,5.9171,5.9168,5.9463,5.9201,5.92,5.92,5.9199,0,5.8564,5.8673,5.8652,5.8725,5.8845,5.8816,5.8935,5.8946,5.8975,5.9047,5.8998,5.9067,5.9041,5.9108,5.9095,5.9207,5.9225,5.9223,5.9218,5.9226,5.9226,5.9248,5.9233,5.9207,5.9206,5.9204,5.9203,0,5.8794,5.8784,5.891,5.8933,5.8942,5.9029,5.9048,5.9116,5.9114,5.9207,5.9227,5.9224,5.9301,5.9288,5.9374,5.9365,5.9503,5.9484,5.949,5.9484,5.9579,5.9569,5.9896,5.9935,5.9651,5.9654,5.9656,0,5.8942,5.9024,5.9056,5.9101,5.9122,5.9196,5.9238,5.9213,5.9259,5.9306,5.9368,5.944,5.9495,5.962,5.9625,5.9689,5.9668,5.9778,5.9678,5.9682,5.9666,5.966,5.9666,5.9797,5.9801,5.9803,5.9806,0,5.9206,5.9196,5.9259,5.932,5.9371,5.9418,5.946,5.95,5.9477,5.9531,5.9608,5.9651,5.9736,5.9807,5.9866,5.9883,5.984,5.9837,5.9862,5.987,5.9868,5.9867,5.9541,5.9829,5.9827,5.9825,5.9824,5.9823,5.9397,5.9466,5.9498,5.9568,5.9597,5.9636,5.9699,5.9705,5.9768,5.9835,5.9816,5.9902,5.9935,6.001,6.0034,6.01,6.0059,6.0096,6.0105,6.0114,6.0123,5.986,6.0111,6.011,6.011,6.0109,6.0109,0,5.9655,5.9672,5.9737,5.9796,5.9851,5.9805,5.9848,5.9897,5.9973,6.0007,6.0062,6.0149,6.0216,6.0226,6.0289,6.034,6.0321,6.0357,6.0352,6.0356,6.0158,6.0128,6.0371,6.0371,6.0371,6.0371,6.0371,6.037,5.9795,5.9907,5.9901,6.0026,6.0042,6.0125,6.0153,6.0188,6.0215,6.0313,6.0368,6.0374,6.0397,6.0462,6.0521,6.0521,6.0546,6.0589,6.0582,6.0396,6.037,6.0345,6.0317,6.0595,6.0595,6.0773,6.0775,6.0776]},{"header":{"parameterUnit":"m.s-1","parameterCategory":1,"la1":30.2991,"la2":30.254,"lo1":-89.0895,"lo2":-89.0444,"dy":0.0017,"dx":0.0017,"nx":28,"ny":28,"refTime":"2023-08-05T03:00:00:Z","depth":0,"parameterNumber":3,"parameterNumberName":"V-component_of_WINDS"},"data":[0,0,0,0,0,0,0,0,0,0,0,0,0,0,0,0,0,0,0,0,0,0,0,0,0,0,0,0,0,0,0,0,0,0,0,0,0,0,0,0,0,0,0,0,0,0,0,0,0,0,0,0,0,0,0,0,0,0,3.8354,3.8355,0,3.844,3.8441,3.8442,3.8431,3.843,3.8428,3.8427,3.8511,3.8514,3.8517,0,0,0,0,0,0,0,0,0,0,0,0,0,3.8175,3.8178,3.8354,3.8355,3.8356,3.844,3.8441,3.8442,3.8431,3.8429,3.8428,3.8426,3.8509,3.8514,3.8518,0,0,0,0,0,0,0,0,0,0,0,0,0,3.8256,3.8179,3.8354,3.8361,3.8362,3.844,3.8441,3.8442,3.8432,3.8429,3.8427,3.8425,3.8508,3.8513,3.8518,3.8593,0,0,3.8535,3.8537,0,0,0,0,0,0,0,0,3.8251,3.8262,3.8359,3.836,3.8362,3.8423,3.8409,3.8493,3.8432,3.8405,3.8427,3.8424,3.8483,3.849,3.8511,3.8597,3.86,3.8535,3.8538,3.854,3.8542,0,0,0,0,0,0,0,3.8246,3.8259,3.8388,3.836,3.8362,3.8358,3.8367,3.8424,3.8454,3.8407,3.8407,3.8417,3.8483,3.8505,3.8512,3.8602,3.8535,3.854,3.8543,3.8545,3.8751,3.8753,0,0,0,0,0,0,3.8239,3.8254,3.8385,3.839,3.8301,3.8363,3.8373,3.8405,3.8454,3.8459,3.8419,3.8416,3.8497,3.8506,3.8515,3.8604,3.854,3.8545,3.8548,3.8748,3.8751,3.8754,0,0,0,0,0,0,3.8235,3.8251,3.8382,3.8322,3.8339,3.8368,3.8404,3.8408,3.843,3.8463,3.8467,3.8437,3.8496,3.8508,3.8573,3.8607,3.8548,3.8553,3.8746,3.8749,3.8752,3.8783,0,0,0,0,0,0,3.823,3.825,3.828,3.8323,3.8342,3.844,3.8407,3.8411,3.844,3.8438,3.848,3.8485,3.8495,3.8566,3.8579,3.8613,3.8557,3.8743,3.8747,3.8751,3.878,3.8788,3.8794,0,0,0,0,0,3.8224,3.8284,3.8281,3.8297,3.838,3.8442,3.8453,3.8464,3.8443,3.8472,3.8493,3.8484,3.8601,3.8572,3.8587,3.8624,3.8741,3.8746,3.8751,3.8776,3.8786,3.8794,0,0,0,0,0,0,3.8243,3.829,3.8287,3.8364,3.8399,3.844,3.8478,3.8474,3.8515,3.8511,3.8522,3.8532,3.8598,3.8617,3.8584,3.8697,3.8668,3.8676,3.8682,3.8692,3.8699,3.8692,3.8561,0,0,0,0,0,3.8256,3.8304,3.8342,3.8406,3.8424,3.8448,3.8475,3.8481,3.8518,3.8532,3.8557,3.8592,3.8636,3.8665,3.8708,3.8782,3.879,3.8815,3.8822,3.8828,3.8835,3.8874,3.8884,3.877,3.877,3.877,0,0,3.8284,3.8316,3.8345,3.8411,3.8439,3.8487,3.8461,3.8512,3.8547,3.8539,3.8603,3.8623,3.8661,3.8731,3.8763,3.875,3.8868,3.8834,3.8839,3.8843,3.888,3.8891,3.89,3.8774,3.8773,3.8773,0,0,3.8359,3.8389,3.8444,3.8473,3.8516,3.8531,3.8544,3.8586,3.8599,3.8663,3.8657,3.8698,3.8775,3.8802,3.8826,3.891,3.8902,3.8923,3.8961,3.8999,3.9008,3.9016,3.9044,3.9054,3.893,3.893,3.893,0,3.8387,3.8461,3.8473,3.8525,3.8553,3.855,3.8605,3.8631,3.8686,3.8704,3.8688,3.8784,3.8809,3.8885,3.8905,3.8925,3.8939,3.8918,3.9006,3.9014,3.9022,3.9049,3.9059,3.8932,3.8932,3.8931,3.8931,0,3.8493,3.8543,3.8583,3.8636,3.8669,3.8722,3.8741,3.8772,3.8775,3.8791,3.8855,3.8886,3.8934,3.8952,3.8955,3.9028,3.9017,3.9004,3.8974,3.9035,3.906,3.907,3.8935,3.8934,3.8934,3.8933,0,0,3.8582,3.8641,3.8656,3.8679,3.8725,3.8764,3.8816,3.8864,3.889,3.8927,3.897,3.9034,3.9021,3.9049,3.9054,3.9088,3.9149,3.9069,3.907,3.9082,3.9229,3.9238,3.925,3.9145,3.9147,3.9149,3.9225,0,3.866,3.8755,3.8767,3.8849,3.8895,3.8891,3.8936,3.8969,3.8985,3.9024,3.9041,3.9086,3.9067,3.9083,3.9116,3.9135,3.9179,3.913,3.9183,3.9185,3.9173,3.9264,3.9274,3.9345,3.9235,3.9237,3.9238,0,3.8764,3.8805,3.8893,3.8932,3.8951,3.8992,3.9036,3.9075,3.911,3.9119,3.9149,3.915,3.9202,3.9171,3.9241,3.9207,3.923,3.9242,3.9245,3.925,3.9215,3.9269,3.9368,3.9378,3.9254,3.9253,3.9252,0,3.8819,3.8896,3.8958,3.8978,3.9025,3.9053,3.9074,3.9108,3.9135,3.9173,3.9191,3.9234,3.9258,3.929,3.9302,3.9278,3.9371,3.9341,3.9378,3.9378,3.9397,3.9395,3.9499,3.9413,3.9413,3.9413,3.9413,0,3.8904,3.8958,3.8983,3.9021,3.9079,3.9092,3.9149,3.9168,3.9198,3.9238,3.9237,3.9274,3.9288,3.9327,3.9336,3.9392,3.9403,3.941,3.9412,3.941,3.9409,3.9424,3.9419,3.9416,3.9415,3.9415,3.9414,0,3.8975,3.8994,3.9061,3.91,3.9111,3.9153,3.9185,3.9221,3.9236,3.9287,3.9299,3.9323,3.9369,3.9384,3.9439,3.9445,3.9509,3.9507,3.9498,3.9497,3.9533,3.9529,3.9649,3.9664,3.957,3.9571,3.9572,0,3.9028,3.9069,3.9112,3.914,3.9162,3.9206,3.9234,3.9247,3.9276,3.9319,3.9349,3.9395,3.9432,3.9504,3.9525,3.9567,3.9565,3.9604,3.9571,3.9567,3.9563,3.956,3.9564,3.961,3.9611,3.9611,3.9612,0,3.9119,3.9126,3.9167,3.9212,3.9246,3.9281,3.9316,3.9338,3.9355,3.9388,3.9435,3.9464,3.952,3.9564,3.9606,3.9625,3.9621,3.9622,3.9633,3.9631,3.9623,3.9626,3.9513,3.9619,3.9619,3.9618,3.9618,3.9617,3.9181,3.9216,3.9252,3.9298,3.9325,3.9357,3.9392,3.9412,3.9452,3.95,3.9504,3.9555,3.9587,3.9644,3.9665,3.9703,3.9692,3.9707,3.9711,3.9714,3.9716,3.9618,3.9711,3.9711,3.9711,3.971,3.971,0,3.927,3.9293,3.9335,3.9383,3.9419,3.9413,3.945,3.948,3.9525,3.9556,3.9593,3.9646,3.9689,3.9713,3.9755,3.9781,3.978,3.9791,3.9789,3.9793,3.9725,3.9711,3.9791,3.9791,3.9791,3.9791,3.9791,3.9791,3.9321,3.938,3.9392,3.9464,3.9486,3.9536,3.9557,3.9586,3.9611,3.9671,3.9707,3.9723,3.9751,3.9795,3.9833,3.9839,3.9853,3.9866,3.987,3.9806,3.9798,3.979,3.9777,3.987,3.987,3.9935,3.9936,3.9936]}]]